Corona, CA

1:03 PM PST on February 18, 2018 (GMT -0800)
Corona Municipal

Weather History for KAJO - January, 2013

Change the Weather History Date:

Saturday, January 19, 2013

  Actual Average (KCNO) Record (KCNO)
Temperature  
Mean Temperature 66 °F -  
Max Temperature 79 °F 65 °F 82 °F (2009)
Min Temperature 54 °F 39 °F 33 °F (2002)
Cooling Degree Days 2    
Growing Degree Days 16 (Base 50)    
Moisture  
Dew Point 10 °F    
Average Humidity 12    
Maximum Humidity 22    
Minimum Humidity 5    
Precipitation  
Precipitation 0.00 in - - ()
Sea Level Pressure  
Sea Level Pressure 30.13 in    
Wind  
Wind Speed 9 mph (SE)    
Max Wind Speed 14 mph    
Max Gust Speed 18 mph    
Visibility 10 miles    
Events      
Averages and records for this station are not official NWS values.
T = Trace of Precipitation, MM = Missing Value Source: NWS Daily Summary

Daily Weather History Graph

Daily Weather History Graph

Search for Another Location

Airport or City:

Trip Planner

Search our weather history database for the weather conditions in past years. The results will help you decide how hot, cold, wet, or windy it might be!

Date:

Astronomy

Jan. 19, 2013 Rise Set
Actual Time 6:54 AM PST 5:08 PM PST
Civil Twilight 6:27 AM PST 5:35 PM PST
Nautical Twilight 5:56 AM PST 6:06 PM PST
Astronomical Twilight 5:26 AM PST 6:35 PM PST
Moon 11:34 AM PST (1/19) 12:36 AM PST (1/19)
Length of Visible Light 11h 08m
Length of Day
10h 14m
First Quarter, 58% of the Moon is Illuminated
Jan 19
First Quarter
Jan 26
Full
Feb 3
Last Quarter
Feb 9
New
Feb 17
First Quarter

Hourly Weather History & Observations

Time (PST) Temp. Dew Point Humidity Pressure Visibility Wind Dir Wind Speed Gust Speed Precip Events Conditions
12:56 AM 62.6 °F 12.2 °F 14% 30.13 in 10.0 mi SE 11.5 mph - N/A   Clear
1:56 AM 59.9 °F 13.1 °F 16% 30.12 in 10.0 mi SE 6.9 mph - N/A   Clear
2:56 AM 61.0 °F 12.0 °F 15% 30.12 in 10.0 mi SE 9.2 mph - N/A   Clear
3:56 AM 60.8 °F 12.2 °F 15% 30.14 in 10.0 mi SE 9.2 mph - N/A   Clear
4:56 AM 61.0 °F 12.0 °F 15% 30.13 in 10.0 mi SE 11.5 mph - N/A   Clear
5:56 AM 61.9 °F 11.1 °F 14% 30.14 in 10.0 mi SE 9.2 mph - N/A   Clear
6:56 AM 62.6 °F 10.4 °F 13% 30.17 in 10.0 mi SE 8.1 mph - N/A   Clear
7:56 AM 63.9 °F 11.1 °F 13% 30.17 in 10.0 mi SE 6.9 mph - N/A   Clear
8:56 AM 66.9 °F 12.0 °F 12% 30.19 in 10.0 mi SSE 6.9 mph - N/A   Clear
9:56 AM 70.0 °F 11.1 °F 10% 30.20 in 10.0 mi SSE 8.1 mph 16.1 mph N/A   Clear
10:56 AM 73.9 °F 12.0 °F 9% 30.17 in 10.0 mi SE 9.2 mph 16.1 mph N/A   Clear
11:56 AM 77.9 °F 4.1 °F 6% 30.13 in 10.0 mi East 13.8 mph 17.3 mph N/A   Clear
12:56 PM 78.8 °F 3.2 °F 5% 30.12 in 10.0 mi East 11.5 mph - N/A   Clear
1:56 PM 79.0 °F 4.1 °F 6% 30.09 in 10.0 mi ENE 10.4 mph - N/A   Clear
2:56 PM 79.0 °F 4.1 °F 6% 30.08 in 10.0 mi ENE 12.7 mph 18.4 mph N/A   Clear
3:56 PM 77.0 °F 6.8 °F 7% 30.09 in 10.0 mi East 10.4 mph - N/A   Clear
4:56 PM 72.0 °F 8.1 °F 8% 30.08 in 10.0 mi East 8.1 mph - N/A   Clear
5:56 PM 68.0 °F 11.1 °F 11% 30.10 in 10.0 mi South 9.2 mph - N/A   Clear
6:56 PM 66.2 °F 8.6 °F 11% 30.13 in 10.0 mi SE 9.2 mph - N/A   Clear
7:56 PM 64.9 °F 9.1 °F 11% 30.13 in 10.0 mi SE 5.8 mph - N/A   Clear
8:56 PM 63.9 °F 9.1 °F 12% 30.13 in 10.0 mi SSE 6.9 mph - N/A   Clear
9:56 PM 57.2 °F 14.0 °F 18% 30.16 in 10.0 mi ESE 8.1 mph - N/A   Clear
10:56 PM 54.0 °F 15.1 °F 22% 30.15 in 10.0 mi ESE 6.9 mph - N/A   Clear
11:56 PM 56.8 °F 12.0 °F 17% 30.14 in 10.0 mi SE 8.1 mph - N/A   Clear